FENGYUN 1C DEB, 37900

Orbit data source: Space-Track

FENGYUN 1C DEB, 37900 is space debris in SSO originally from a launch on Mon, 10 May 1999 UTC launched from the Taiyaun Space Center, China (TSC). Fengyun 1C debris stems from the Chinese weather satellite Fengyun-1C, which was intentionally destroyed by a Chinese anti-satellite missile in 2007. This event dramatically increased the amount of space debris, with thousands of trackable fragments posing hazards to satellites and human spaceflight. The Fengyun 1C debris cloud has become a focal point in discussions about space sustainability and the need for international regulations to prevent the creation of new debris.

Loading next visibility...
Identifier
37900, 1999-025EMZ
Orbit
SSO
Country
Flag of CNCN / PRC
Related business
Manufacturer
Unknown
Mission
Spacecraft
Bus & Motor
Unknown
Mass
Unknown
Launch date (UTC)
1999-05-10 (27 years ago)
Launch vehicle
Unknown
Launch site
Taiyaun Space Center, China (TSC)
Object type
Payload
Rocket body
Debris
Shape & HBR
Unknown shape, 0.1 m
Radar Cross Section
Small (<0.1 m²)

Expand to show TLE details & history
Last TLE update: 1 week ago

TLE from 1 week ago
0 FENGYUN 1C DEB
1 37900U 99025EMZ 26200.17796913  .00000927  00000-0  51169-3 0  9990
2 37900 102.3046 358.0557 0208402  57.6224 304.4914 14.04876144628800
Epoch: 2026-07-19T04:16Z
TLE epoch observation values (Epoch: 2026-07-19T04:16:16.532Z)
Latitude
0.00003°
Longitude
-2.99329°
Altitude
796.259 km
Speed
7.498 km/s
True Right ascension
23h 52m 13s
True Declination
0° 00' 00"
Sunlit
Object was in full shadow at epoch
Visualization orbit readout
Latitude
Unknown
Longitude
Unknown
Altitude
Unknown
Speed
Unknown
Apparent Right ascension
Unknown
Apparent Declination
Unknown
Sunlit
N/A
Visualization observer readout
Local Sidereal Time
01:38:08
Azimuth
Unknown
Elevation
Unknown
Doppler factor
Unknown
Orbital elements
Apogee altitude
1,025.484 km
Perigee altitude
723.197 km
Semi-major axis
7,252.478 km
Eccentricity
0.02084
Inclination
102.3046°
RAAN
358.0557°
Arg. of periapsis
57.6224°
True anomaly
302.49404°
Mean anomaly
304.4914°
Eccentric anomaly
303.49564°
Mean motion
3.5141 °/min
Orbital period
102.44 mins
BSTAR
0.00051169
Loading maneuver chart data...
Computing Atmospheric mass density...

Documentation

Showing up to 5 results
|